WB5OMR-9 Weather Reports


time (UTC)temp
C
wind
direction
speed
KPH
gust
KPH
rain 1hr
cm
rain 24hr
cm
rain mn
cm
humidity
%
barometer
mb
20260505062723 21 0.0 0.0 0.00 0.00 0.00 86 1009.5
20260505061722 21 0.0 0.0 0.00 0.00 0.00 86 1009.5
20260505060639 21 0.0 0.0 0.00 0.00 0.00 85 1009.5
20260505055638 21 0.0 0.0 0.00 0.00 0.00 85 1009.8
20260505054637 21 0.0 0.0 0.00 0.00 0.00 84 1009.8
20260505053636 21 0.0 0.0 0.00 0.00 0.00 84 1009.8
20260505052635 21 0.0 0.0 0.00 0.00 0.00 83 1009.8
20260505051634 21 0.0 0.0 0.00 0.00 0.00 83 1009.8
20260505050634 21 0.0 0.0 0.00 0.00 0.00 82 1009.8
20260505041547 22 0.0 0.0 0.00 0.00 0.00 80 1009.5
20260505040504 22 0.0 0.0 0.00 0.00 0.00 79 1009.8
20260505035503 22 0.0 0.0 0.00 0.00 0.00 79 1009.5
20260505034501 22 0.0 0.0 0.00 0.00 0.00 78 1009.8
20260505033500 22 0.0 0.0 0.00 0.00 0.00 77 1009.8
20260505032459 22 0.0 0.0 0.00 0.00 0.00 77 1009.8
20260505031458 22 0.0 0.0 0.00 0.00 0.00 76 1009.5
20260505030415 22 0.0 0.0 0.00 0.00 0.00 75 1009.5
20260505025414 22 0.0 0.0 0.00 0.00 0.00 75 1009.5
20260505024413 23 0.0 0.0 0.00 0.00 0.00 74 1009.5
20260505023412 23 0.0 0.0 0.00 0.00 0.00 74 1009.5
20260505022411 23 0.0 0.0 0.00 0.00 0.00 73 1009.5
20260505021327 23 0.0 0.0 0.00 0.00 0.00 72 1009.1
20260505020244 24 0.0 0.0 0.00 0.00 0.00 71 1009.1
20260505015201 24 0.0 0.0 0.00 0.00 0.00 70 1009.1
20260505014159 25 0.0 0.0 0.00 0.00 0.00 69 1009.1
20260505013158 25 0.0 0.0 0.00 0.00 0.00 68 1009.1
20260505012156 25 0.0 0.0 0.00 0.00 0.00 68 1009.1
20260505011155 25 0.0 0.0 0.00 0.00 0.00 66 1009.1
20260505010155 26 0.0 0.0 0.00 0.00 0.00 65 1009.1
20260505005154 26 0.0 0.0 0.00 0.00 0.00 65 1009.1
20260505004153 26 0.0 0.0 0.00 0.00 0.00 64 1009.1
20260505003152 26 0.0 0.0 0.00 0.00 0.00 63 1009.1
20260505002151 26 0.0 0.0 0.00 0.00 0.00 63 1008.8
20260505001150 27 0.0 0.0 0.00 0.00 0.00 61 1009.1
20260505000107 27 0.0 0.0 0.00 0.00 0.00 61 1009.1
20260504235106 27 0.0 0.0 0.00 0.00 0.00 60 1009.1
20260504234105 27 0.0 0.0 0.00 0.00 0.00 60 1009.1
20260504233104 28 0.0 0.0 0.00 0.00 0.00 60 1009.5
20260504232021 27 0.0 0.0 0.00 0.00 0.00 61 1009.1
20260504231019 27 0.0 0.0 0.00 0.00 0.00 60 1009.5
20260504230018 28 0.0 0.0 0.00 0.00 0.00 60 1009.5
20260504225017 27 0.0 0.0 0.00 0.00 0.00 61 1009.5
20260504224016 28 0.0 0.0 0.00 0.00 0.00 60 1010.2
20260504223015 28 0.0 0.0 0.00 0.00 0.00 60 1010.2
20260504222014 28 0.0 0.0 0.00 0.00 0.00 59 1010.2
20260504221013 28 0.0 0.0 0.00 0.00 0.00 60 1010.2
20260504220011 28 0.0 0.0 0.00 0.00 0.00 59 1010.2
20260504215010 28 0.0 0.0 0.00 0.00 0.00 59 1010.2
20260504214009 28 0.0 0.0 0.00 0.00 0.00 59 1010.5
20260504213007 28 0.0 0.0 0.00 0.00 0.00 60 1010.5
20260504212006 28 0.0 0.0 0.00 0.00 0.00 59 1010.5
20260504211005 28 0.0 0.0 0.00 0.00 0.00 62 1010.8
20260504210004 27 0.0 0.0 0.00 0.00 0.00 61 1010.8
20260504205004 27 0.0 0.0 0.00 0.00 0.00 63 1011.5
20260504204002 27 0.0 0.0 0.00 0.00 0.00 64 1011.5
20260504203001 26 0.0 0.0 0.00 0.00 0.00 64 1011.9
20260504201918 26 0.0 0.0 0.00 0.00 0.00 64 1011.9
20260504200917 26 0.0 0.0 0.00 0.00 0.00 64 1011.9
20260504195834 26 0.0 0.0 0.00 0.00 0.00 64 1012.2
20260504194751 26 0.0 0.0 0.00 0.00 0.00 64 1012.2
20260504193750 26 0.0 0.0 0.00 0.00 0.00 65 1012.5
20260504192749 26 0.0 0.0 0.00 0.00 0.00 65 1012.5
20260504191747 26 0.0 0.0 0.00 0.00 0.00 64 1012.5
20260504190746 26 0.0 0.0 0.00 0.00 0.00 65 1012.5
20260504185703 26 0.0 0.0 0.00 0.00 0.00 65 1012.9
20260504184702 26 0.0 0.0 0.00 0.00 0.00 64 1012.5
20260504183701 26 0.0 0.0 0.00 0.00 0.00 65 1012.9
20260504182700 26 0.0 0.0 0.00 0.00 0.00 66 1013.2
20260504181659 26 0.0 0.0 0.00 0.00 0.00 65 1013.2
20260504180658 26 0.0 0.0 0.00 0.00 0.00 65 1013.2
20260504175615 26 0.0 0.0 0.00 0.00 0.00 66 1013.2
20260504174532 26 0.0 0.0 0.00 0.00 0.00 67 1013.2
20260504173449 25 0.0 0.0 0.00 0.00 0.00 69 1013.5
20260504172448 25 0.0 0.0 0.00 0.00 0.00 70 1013.9
20260504171446 25 0.0 0.0 0.00 0.00 0.00 70 1013.9
20260504170445 24 0.0 0.0 0.00 0.00 0.00 71 1013.9
20260504160233 22 0.0 0.0 0.00 0.00 0.00 75 1014.2
20260504150226 21 0.0 0.0 0.00 0.00 0.00 78 1014.6
20260504141057 19 0.0 0.0 0.00 0.00 0.00 81 1014.2
20260504081402 17 0.0 0.0 0.00 0.00 0.00 78 1014.9
20260504080401 17 0.0 0.0 0.00 0.00 0.00 77 1015.6
20260504070231 18 0.0 0.0 0.00 0.00 0.00 74 1015.9